Location: Barcelona
(41.3829°N, 2.1774°E)
Time: 11:24:37
(UTC+00:00)

ISS - Pass Details

Date: 03 May 2025
Orbit: 416 x 419 km, 51.6° (Epoch: 14 May)

Event Time Altitude Azimuth Distance (km) Brightness Sun altitude
Exits shadow 01:47:49 15° 343° (NNW) 1,221 -1.0 -26.6°
Maximum altitude 01:48:13 15° 352° (N) 1,209 -0.9 -26.5°
Drops below altitude 10° 01:50:19 10° 30° (NNE) 1,496 0.1 -26.3°
Sets 01:53:04 0° 55° (NE) 2,361 1.2 -26.0°
